FW4059 Weather Reports


Display with metric or nautical units.
time (UTC)temp
F
wind
direction
speed
MPH
gust
MPH
rain 1hr
in
rain 24hr
in
rain mn
in
humidity
%
barometer
mb
20260510141507 50 257 2.0 7.0 0.00 0.00 0.00 66 1016.8
20260510140025 50 317 2.0 8.0 0.00 0.00 0.00 68 1017.0
20260510134533 50 294 1.0 5.0 0.00 0.00 0.00 66 1016.6
20260510133051 49 293 2.0 8.0 0.00 0.00 0.00 65 1016.3
20260510131507 49 282 0.0 6.0 0.00 0.00 0.00 69 1016.0
20260510130038 49 276 1.0 6.0 0.00 0.00 0.00 69 1015.9
20260510124548 48 300 1.0 8.0 0.00 0.00 0.00 70 1015.7
20260510123100 48 244 0.0 6.0 0.00 0.00 0.00 71 1015.6
20260510121521 47 265 1.0 5.0 0.00 0.00 0.00 74 1015.5
20260510120040 47 245 0.0 4.0 0.00 0.00 0.00 76 1015.1
20260510114510 46 264 0.0 2.0 0.00 0.00 0.00 77 1015.0
20260510113018 45 288 0.0 2.0 0.00 0.00 0.00 79 1014.8
20260510111538 44 266 0.0 1.0 0.00 0.00 0.00 81 1014.6
20260510110054 44 288 0.0 0.0 0.00 0.00 0.00 81 1014.3
20260510104525 44 292 0.0 1.0 0.00 0.00 0.00 82 1013.8
20260510103047 43 277 0.0 2.0 0.00 0.00 0.00 83 1013.6
20260510101559 43 276 0.0 0.0 0.00 0.00 0.00 85 1012.9
20260510100008 44 286 0.0 2.0 0.00 0.00 0.00 83 1012.5
20260510094535 44 271 0.0 2.0 0.00 0.00 0.00 82 1012.6
20260510093101 45 278 0.0 1.0 0.00 0.00 0.00 83 1012.6
20260510091515 45 291 0.0 2.0 0.00 0.00 0.00 83 1012.4
20260510090031 45 276 0.0 1.0 0.00 0.00 0.00 88 1011.9
20260510084546 45 279 0.0 3.0 0.00 0.00 0.00 90 1011.7
20260510083013 46 275 0.0 0.0 0.00 0.00 0.00 94 1011.5
20260510081534 46 275 0.0 0.0 0.00 0.00 0.00 92 1011.3
20260510080056 47 275 0.0 0.0 0.00 0.00 0.00 91 1011.1
20260510074506 47 270 0.0 0.0 0.00 0.00 0.00 91 1011.1
20260510073032 47 271 0.0 0.0 0.00 0.00 0.00 90 1011.0
20260510071547 48 269 0.0 0.0 0.00 0.00 0.00 89 1010.7
20260510070016 48 269 0.0 1.0 0.00 0.00 0.00 86 1010.7
20260510064539 48 269 0.0 1.0 0.00 0.00 0.00 87 1010.2
20260510063058 48 285 0.0 0.0 0.00 0.00 0.00 93 1010.1
20260510061523 48 285 0.0 0.0 0.00 0.00 0.00 91 1009.8
20260510060045 49 285 0.0 0.0 0.00 0.00 0.00 92 1009.9
20260510054504 49 285 0.0 0.0 0.00 0.00 0.00 93 1009.8
20260510053029 50 285 0.0 3.0 0.00 0.00 0.00 92 1009.9
20260510051540 50 136 0.0 3.0 0.00 0.00 0.00 97 1009.5
20260510050008 50 228 0.0 0.0 0.00 0.00 0.00 97 1009.3
20260510044522 50 228 0.0 0.0 0.00 0.00 0.00 97 1009.2
20260510043036 50 212 0.0 0.0 0.00 0.00 0.00 97 1008.9
20260510041559 49 212 0.0 1.0 0.00 0.00 0.00 96 1008.4
20260510040121 50 212 0.0 0.0 0.00 0.00 0.00 96 1008.2
20260510034559 50 188 0.0 0.0 0.00 0.00 0.00 96 1007.9
20260510033024 51 219 0.0 1.0 0.00 0.00 0.00 96 1007.7
20260510031548 51 219 0.0 1.0 0.00 0.00 0.00 95 1007.9
20260510030022 51 269 0.0 2.0 0.00 0.00 0.00 96 1007.8
20260510024530 51 219 0.0 2.0 0.00 0.00 0.00 96 1007.7
20260510023057 51 217 0.0 1.0 0.00 0.00 0.00 96 1007.5
20260510021525 51 227 0.0 1.0 0.00 0.00 0.00 96 1007.3
20260510020042 51 222 0.0 3.0 0.00 0.00 0.00 96 1007.1
20260510014558 51 228 0.0 2.0 0.00 0.00 0.00 96 1007.2
20260510013029 51 240 0.0 4.0 0.00 0.00 0.00 96 1007.1
20260510011555 51 203 0.0 4.0 0.00 0.00 0.00 96 1006.8
20260510010021 51 211 0.0 1.0 0.00 0.00 0.00 96 1006.4
20260510004551 51 197 0.0 4.0 0.00 0.00 0.00 96 1006.1
20260510003023 51 134 0.0 0.0 0.00 0.00 0.00 96 1006.0
20260510001636 51 141 0.0 0.0 0.00 0.00 0.00 96 1006.2
20260510000055 51 219 0.0 1.0 0.00 0.00 0.00 96 1006.1
20260509234536 52 224 0.0 2.0 0.00 0.00 0.00 95 1005.5
20260509233036 51 241 0.0 2.0 0.00 0.00 0.00 94 1006.3
20260509231559 51 250 0.0 5.0 0.00 0.00 0.00 93 1006.4
20260509230017 54 262 3.0 17.0 0.00 0.00 0.00 88 1006.8
20260509224546 62 266 0.0 2.0 0.00 0.00 0.00 77 1004.5
20260509223101 62 160 0.0 1.0 0.00 0.00 0.00 75 1004.0
20260509221517 62 338 0.0 1.0 0.00 0.00 0.00 76 1004.1
20260509220039 62 293 0.0 0.0 0.00 0.00 0.00 76 1004.2
20260509214557 62 293 0.0 2.0 0.00 0.00 0.00 75 1004.4
20260509213021 63 156 0.0 4.0 0.00 0.00 0.00 75 1004.5
20260509211545 63 190 0.0 2.0 0.00 0.00 0.00 74 1004.5
20260509210004 64 254 0.0 2.0 0.00 0.00 0.00 72 1004.9
20260509204527 64 260 0.0 4.0 0.00 0.00 0.00 71 1004.9
20260509203055 64 255 0.0 3.0 0.00 0.00 0.00 72 1005.0
20260509201514 64 250 0.0 3.0 0.00 0.00 0.00 70 1005.0
20260509200038 65 243 1.0 4.0 0.00 0.00 0.00 68 1004.9
20260509194555 65 221 0.0 4.0 0.00 0.00 0.00 69 1005.2
20260509193016 65 224 0.0 2.0 0.00 0.00 0.00 69 1005.2
20260509191543 65 207 0.0 3.0 0.00 0.00 0.00 68 1005.6
20260509190059 65 217 0.0 4.0 0.00 0.00 0.00 70 1005.8
20260509190001 65 217 0.0 4.0 0.00 0.00 0.00 70 1005.9
20260509184529 65 238 0.0 2.0 0.00 0.00 0.00 68 1005.9
20260509183035 65 230 0.0 4.0 0.00 0.00 0.00 69 1006.0
20260509181608 66 260 0.0 3.0 0.00 0.00 0.00 68 1006.1
20260509180019 66 224 0.0 5.0 0.00 0.00 0.00 69 1006.1
20260509174531 65 249 0.0 5.0 0.00 0.00 0.00 68 1006.4
20260509173107 65 218 0.0 4.0 0.00 0.00 0.00 68 1006.7
20260509171519 66 232 1.0 4.0 0.00 0.00 0.00 66 1007.1
20260509170049 65 17 0.0 4.0 0.00 0.00 0.00 67 1006.8
20260509164557 65 56 0.0 3.0 0.00 0.00 0.00 71 1006.9
20260509164504 65 220 0.0 3.0 0.00 0.00 0.00 70 1007.1
20260509163024 64 229 0.0 4.0 0.00 0.00 0.00 72 1007.3
20260509161552 63 224 0.0 4.0 0.00 0.00 0.00 71 1007.7
20260509160058 62 236 1.0 4.0 0.00 0.00 0.00 75 1007.6
20260509154525 63 228 0.0 3.0 0.00 0.00 0.00 74 1007.5
20260509153047 60 279 0.0 3.0 0.00 0.00 0.00 76 1007.8
20260509151504 60 255 0.0 3.0 0.00 0.00 0.00 76 1008.0
20260509150023 59 255 0.0 2.0 0.00 0.00 0.00 78 1008.2
20260509144546 59 228 0.0 2.0 0.00 0.00 0.00 80 1008.1
20260509143011 59 232 0.0 1.0 0.00 0.00 0.00 82 1008.2
20260509141540 58 242 0.0 1.0 0.00 0.00 0.00 82 1008.2